Weather in Malye Alabukhi 1

Russia / Voronezh Oblast     51°32′09″N   42°09′27″E
temp.,
°C
wind,
m/s
gust,
m/s
humid.,
%
clouds,
%
prec.,
mm/h
press.,
hPa
HPBL,
m
28 september, tue
tue2800:00+9n378896 0.0 1018319
03:00+8nne4789100 0.0 1018416
06:00+7nne4781100 0.0 1020623
09:00+7nne5681100 0.0 1022786
12:00+7nne4687100 0.2 1023720
15:00+7ne4682100 0.3 1025967
18:00+7ne4878100 0.1 1027619
21:00+7ne487663 0.1 1028595
29 september, wed
wed2900:00+5nne367559 0.0 1029144
03:00+2n378523 0.0 1030141
06:00+2nne37859 0.0 1031143
09:00+6ne58635 0.0 1031591
12:00+10ne56475 0.0 10311360
15:00+11ne454256 0.0 10301461
18:00+7nne34566 0.0 103155
21:00+5ne34655 0.0 103258
30 september, thu
thu3000:00+4nne33705 0.0 103235
03:00+3nne33755 0.0 103337
06:00+2nne33785 0.0 103444
09:00+7ne34584 0.0 1034352
12:00+11ne33455 0.0 10341279
15:00+12nne334315 0.0 10331571
18:00+8nne22575 0.0 103313
21:00+6ne22665 0.0 103413
1 october, fri
fri100:00+5ne11695 0.0 103510
03:00+5n11725 0.0 103510
06:00+4nnw227523 0.0 103610
09:00+9nw22586 0.0 1035293
12:00+12n2352100 0.0 1035953
15:00+13n235535 0.0 1034934
18:00+10ssw116929 0.0 103410
21:00+10sw2267100 0.0 103430
2 october, sat
sat200:00+10wsw1169100 0.0 103411
03:00+10wnw1169100 0.0 103411
06:00+10nne1172100 0.0 103417
09:00+11nne1273100 0.0 1035152
12:00+13ne2269100 0.0 1034450
15:00+13ne2267100 0.0 1034627
18:00+12ne2275100 0.0 103418
21:00+11e227971 0.0 103436